STARLINK-35212

Last updated on Mon Oct 06 2025 00:02:05 GMT+0000 (Coordinated Universal Time)

1 65496U 25198E 25278.50001156 .00123494 00000+0 21999-2 0 9991 2 65496 53.1587 280.4949 0001012 68.7237 87.2904 15.49226569 5378
UTC large
Height (km)
Speed (km/s)
/
Latitude / Longitude
Inclination (degrees)
Orbital Period (minutes)
Azimuth
Elevation
Range (km)
Doppler Factor

Next 0 passes for location: London (51.5072 / 0.1276)

Sorry there are no passes over London.
STARLINK-35212